Time,TemperatureF,DewpointF,PressureIn,WindDirection,WindDirectionDegrees,WindSpeedMPH,WindSpeedGustMPH,Humidity,HourlyPrecipIn,Conditions,Clouds,dailyrainin,SoftwareType,DateUTC
2013-05-01 00:01:00,50.8,48.0,30.24,East,84,12.0,17.0,90,0.00,,,0.00,VWS V12.08,2013-05-01 04:01:00,
2013-05-01 00:11:00,50.8,48.0,30.24,ENE,77,16.0,16.0,90,0.00,,,0.00,VWS V12.08,2013-05-01 04:11:00,
2013-05-01 00:16:00,50.8,48.0,30.24,East,88,15.0,17.0,90,0.00,,,0.00,VWS V12.08,2013-05-01 04:16:00,
2013-05-01 00:21:00,50.9,48.1,30.24,East,81,16.0,18.0,90,0.00,,,0.00,VWS V12.08,2013-05-01 04:21:00,
2013-05-01 00:31:00,50.8,48.0,30.25,East,81,14.0,18.0,90,0.00,,,0.00,VWS V12.08,2013-05-01 04:31:00,
2013-05-01 00:41:00,50.7,47.9,30.25,ENE,68,14.0,16.0,90,0.00,,,0.00,VWS V12.08,2013-05-01 04:41:00,
2013-05-01 00:46:00,50.7,47.9,30.25,ENE,63,13.0,16.0,90,0.00,,,0.00,VWS V12.08,2013-05-01 04:46:00,
2013-05-01 00:51:00,50.6,47.8,30.25,ENE,68,5.0,16.0,90,0.00,,,0.00,VWS V12.08,2013-05-01 04:51:00,
2013-05-01 01:01:00,50.6,47.8,30.25,ENE,63,12.0,16.0,90,0.00,,,0.00,VWS V12.08,2013-05-01 05:01:00,
2013-05-01 01:11:00,50.5,47.7,30.25,ENE,63,15.0,15.0,90,0.00,,,0.00,VWS V12.08,2013-05-01 05:11:00,
2013-05-01 01:16:00,50.5,47.7,30.25,ENE,65,14.0,16.0,90,0.00,,,0.00,VWS V12.08,2013-05-01 05:16:00,
2013-05-01 01:21:00,50.5,47.7,30.25,NE,55,12.0,14.0,90,0.00,,,0.00,VWS V12.08,2013-05-01 05:21:00,
2013-05-01 01:31:00,50.4,47.6,30.25,NE,48,9.0,14.0,90,0.00,,,0.00,VWS V12.08,2013-05-01 05:31:00,
2013-05-01 01:41:00,50.0,47.2,30.25,NE,56,8.0,13.0,90,0.00,,,0.00,VWS V12.08,2013-05-01 05:41:00,
2013-05-01 01:46:00,50.0,46.9,30.25,NE,40,6.0,13.0,89,0.00,,,0.00,VWS V12.08,2013-05-01 05:46:00,
2013-05-01 01:51:00,50.1,47.0,30.25,NE,55,14.0,16.0,89,0.00,,,0.00,VWS V12.08,2013-05-01 05:51:00,
2013-05-01 02:01:00,50.4,47.3,30.25,ENE,72,16.0,17.0,89,0.00,,,0.00,VWS V12.08,2013-05-01 06:01:00,
2013-05-01 02:11:00,50.3,47.2,30.25,ENE,65,12.0,21.0,89,0.00,,,0.00,VWS V12.08,2013-05-01 06:11:00,
2013-05-01 02:16:00,50.4,47.3,30.25,ENE,72,13.0,21.0,89,0.00,,,0.00,VWS V12.08,2013-05-01 06:16:00,
2013-05-01 02:21:00,50.5,47.1,30.25,East,81,14.0,17.0,88,0.00,,,0.00,VWS V12.08,2013-05-01 06:21:00,
2013-05-01 02:31:00,50.7,47.3,30.25,ENE,69,9.0,19.0,88,0.00,,,0.00,VWS V12.08,2013-05-01 06:31:00,
2013-05-01 02:41:00,50.6,46.9,30.25,ENE,76,13.0,18.0,87,0.00,,,0.00,VWS V12.08,2013-05-01 06:41:00,
2013-05-01 02:46:00,50.6,46.9,30.25,ENE,71,7.0,18.0,87,0.00,,,0.00,VWS V12.08,2013-05-01 06:46:00,
2013-05-01 02:51:00,50.6,46.9,30.25,ENE,71,14.0,17.0,87,0.00,,,0.00,VWS V12.08,2013-05-01 06:51:00,
2013-05-01 03:01:00,50.7,47.0,30.25,ENE,75,18.0,18.0,87,0.00,,,0.00,VWS V12.08,2013-05-01 07:01:00,
2013-05-01 03:11:00,50.8,46.8,30.25,ENE,78,12.0,19.0,86,0.00,,,0.00,VWS V12.08,2013-05-01 07:11:00,
2013-05-01 03:16:00,50.6,46.6,30.25,ENE,76,16.0,20.0,86,0.00,,,0.00,VWS V12.08,2013-05-01 07:16:00,
2013-05-01 03:21:00,50.8,46.8,30.25,ENE,78,17.0,18.0,86,0.00,,,0.00,VWS V12.08,2013-05-01 07:21:00,
2013-05-01 03:31:00,50.8,46.8,30.26,East,86,14.0,19.0,86,0.00,,,0.00,VWS V12.08,2013-05-01 07:31:00,
2013-05-01 03:41:00,50.8,46.5,30.25,East,84,14.0,21.0,85,0.00,,,0.00,VWS V12.08,2013-05-01 07:41:00,
2013-05-01 03:46:00,50.8,46.8,30.25,East,90,13.0,21.0,86,0.00,,,0.00,VWS V12.08,2013-05-01 07:46:00,
2013-05-01 03:51:00,50.8,46.5,30.26,ENE,71,17.0,20.0,85,0.00,,,0.00,VWS V12.08,2013-05-01 07:51:00,
2013-05-01 04:01:00,50.7,46.4,30.26,ENE,73,19.0,20.0,85,0.00,,,0.00,VWS V12.08,2013-05-01 08:01:00,
2013-05-01 04:11:00,50.7,46.7,30.26,East,81,20.0,22.0,86,0.00,,,0.00,VWS V12.08,2013-05-01 08:11:00,
2013-05-01 04:21:00,50.7,46.7,30.26,East,84,19.0,21.0,86,0.00,,,0.00,VWS V12.08,2013-05-01 08:21:00,
2013-05-01 04:31:00,50.6,46.6,30.27,East,84,14.0,21.0,86,0.00,,,0.00,VWS V12.08,2013-05-01 08:31:00,
2013-05-01 04:41:00,50.5,46.8,30.27,ENE,75,20.0,22.0,87,0.00,,,0.00,VWS V12.08,2013-05-01 08:41:00,
2013-05-01 04:46:00,50.6,46.9,30.27,East,79,19.0,22.0,87,0.00,,,0.00,VWS V12.08,2013-05-01 08:46:00,
2013-05-01 04:51:00,50.6,46.9,30.26,East,84,21.0,21.0,87,0.00,,,0.00,VWS V12.08,2013-05-01 08:51:00,
2013-05-01 05:01:00,50.6,46.9,30.26,ENE,76,20.0,22.0,87,0.00,,,0.00,VWS V12.08,2013-05-01 09:01:00,
2013-05-01 05:11:00,50.6,47.2,30.27,ENE,67,16.0,23.0,88,0.00,,,0.00,VWS V12.08,2013-05-01 09:11:00,
2013-05-01 05:16:00,50.5,47.1,30.27,ENE,76,13.0,23.0,88,0.00,,,0.00,VWS V12.08,2013-05-01 09:16:00,
2013-05-01 05:21:00,50.5,47.1,30.27,ENE,67,17.0,20.0,88,0.00,,,0.00,VWS V12.08,2013-05-01 09:21:00,
2013-05-01 05:31:00,50.4,47.0,30.27,ENE,69,16.0,21.0,88,0.00,,,0.00,VWS V12.08,2013-05-01 09:31:00,
2013-05-01 05:41:00,50.4,48.2,30.28,NE,36,11.0,19.0,92,0.00,,,0.00,VWS V12.08,2013-05-01 09:41:00,
2013-05-01 05:46:00,50.2,46.8,30.28,NE,53,7.0,19.0,88,0.00,,,0.00,VWS V12.08,2013-05-01 09:46:00,
2013-05-01 05:51:00,50.0,46.6,30.28,NE,41,6.0,9.0,88,0.00,,,0.00,VWS V12.08,2013-05-01 09:51:00,
2013-05-01 06:01:00,49.5,46.1,30.29,NE,53,6.0,10.0,88,0.00,,,0.00,VWS V12.08,2013-05-01 10:01:00,
2013-05-01 06:11:00,49.6,46.2,30.29,NE,49,4.0,10.0,88,0.00,,,0.00,VWS V12.08,2013-05-01 10:11:00,
2013-05-01 06:16:00,49.6,46.2,30.29,NE,46,10.0,10.0,88,0.00,,,0.00,VWS V12.08,2013-05-01 10:16:00,
2013-05-01 06:21:00,49.7,46.6,30.29,NNE,13,4.0,12.0,89,0.00,,,0.00,VWS V12.08,2013-05-01 10:21:00,
2013-05-01 06:31:00,50.0,46.9,30.30,NE,52,7.0,12.0,89,0.00,,,0.00,VWS V12.08,2013-05-01 10:31:00,
2013-05-01 06:41:00,50.5,47.4,30.30,NE,36,9.0,12.0,89,0.00,,,0.00,VWS V12.08,2013-05-01 10:41:00,
2013-05-01 06:46:00,50.8,47.7,30.30,NE,55,11.0,12.0,89,0.00,,,0.00,VWS V12.08,2013-05-01 10:46:00,
2013-05-01 06:51:00,51.0,47.6,30.30,NE,46,8.0,12.0,88,0.00,,,0.00,VWS V12.08,2013-05-01 10:51:00,
2013-05-01 07:01:00,51.6,47.9,30.31,NE,42,12.0,17.0,87,0.00,,,0.00,VWS V12.08,2013-05-01 11:01:00,
2013-05-01 07:11:00,52.3,48.2,30.31,NE,39,7.0,15.0,86,0.00,,,0.00,VWS V12.08,2013-05-01 11:11:00,
2013-05-01 07:16:00,52.6,48.5,30.31,NE,53,5.0,15.0,86,0.00,,,0.00,VWS V12.08,2013-05-01 11:16:00,
2013-05-01 07:21:00,53.0,48.6,30.31,NNE,27,6.0,12.0,85,0.00,,,0.00,VWS V12.08,2013-05-01 11:21:00,
2013-05-01 07:31:00,53.5,48.8,30.31,ENE,71,8.0,13.0,84,0.00,,,0.00,VWS V12.08,2013-05-01 11:31:00,
2013-05-01 07:41:00,54.1,49.1,30.31,NNE,26,9.0,14.0,83,0.00,,,0.00,VWS V12.08,2013-05-01 11:41:00,
2013-05-01 07:46:00,54.4,49.3,30.31,ENE,59,6.0,14.0,83,0.00,,,0.00,VWS V12.08,2013-05-01 11:46:00,
2013-05-01 07:51:00,54.7,49.3,30.31,ENE,74,10.0,14.0,82,0.00,,,0.00,VWS V12.08,2013-05-01 11:51:00,
2013-05-01 08:01:00,55.1,49.7,30.32,ENE,68,12.0,14.0,82,0.00,,,0.00,VWS V12.08,2013-05-01 12:01:00,
2013-05-01 08:11:00,55.6,50.2,30.32,East,86,11.0,15.0,82,0.00,,,0.00,VWS V12.08,2013-05-01 12:11:00,
2013-05-01 08:16:00,55.8,50.1,30.32,ENE,72,13.0,15.0,81,0.00,,,0.00,VWS V12.08,2013-05-01 12:16:00,
2013-05-01 08:21:00,55.9,49.8,30.32,NE,55,9.0,17.0,80,0.00,,,0.00,VWS V12.08,2013-05-01 12:21:00,
2013-05-01 08:31:00,56.3,49.9,30.33,ENE,69,18.0,20.0,79,0.00,,,0.00,VWS V12.08,2013-05-01 12:31:00,
2013-05-01 08:41:00,56.6,50.2,30.33,ENE,63,13.0,21.0,79,0.00,,,0.00,VWS V12.08,2013-05-01 12:41:00,
2013-05-01 08:46:00,56.6,50.2,30.33,East,80,17.0,21.0,79,0.00,,,0.00,VWS V12.08,2013-05-01 12:46:00,
2013-05-01 08:51:00,56.5,50.1,30.33,East,80,13.0,21.0,79,0.00,,,0.00,VWS V12.08,2013-05-01 12:51:00,
2013-05-01 09:01:00,56.6,49.5,30.33,East,81,18.0,21.0,77,0.00,,,0.00,VWS V12.08,2013-05-01 13:01:00,
2013-05-01 09:11:00,56.8,49.0,30.34,ENE,75,20.0,24.0,75,0.00,,,0.00,VWS V12.08,2013-05-01 13:11:00,
2013-05-01 09:16:00,57.0,49.5,30.34,ENE,72,14.0,24.0,76,0.00,,,0.00,VWS V12.08,2013-05-01 13:16:00,
2013-05-01 09:21:00,57.0,49.5,30.34,ENE,78,24.0,24.0,76,0.00,,,0.00,VWS V12.08,2013-05-01 13:21:00,
2013-05-01 09:31:00,57.1,50.0,30.35,East,82,15.0,25.0,77,0.00,,,0.00,VWS V12.08,2013-05-01 13:31:00,
2013-05-01 09:41:00,57.3,50.2,30.35,East,80,20.0,23.0,77,0.00,,,0.00,VWS V12.08,2013-05-01 13:41:00,
2013-05-01 09:51:00,57.9,50.7,30.35,East,90,14.0,21.0,77,0.00,,,0.00,VWS V12.08,2013-05-01 13:51:00,
2013-05-01 10:01:00,58.4,51.2,30.36,East,87,14.0,21.0,77,0.00,,,0.00,VWS V12.08,2013-05-01 14:01:00,
2013-05-01 10:11:00,58.8,51.6,30.36,East,80,10.0,22.0,77,0.00,,,0.00,VWS V12.08,2013-05-01 14:11:00,
2013-05-01 10:16:00,58.9,52.1,30.36,East,86,14.0,22.0,78,0.00,,,0.00,VWS V12.08,2013-05-01 14:16:00,
2013-05-01 10:21:00,59.2,52.3,30.37,East,86,13.0,18.0,78,0.00,,,0.00,VWS V12.08,2013-05-01 14:21:00,
2013-05-01 10:31:00,59.8,52.9,30.36,East,90,12.0,18.0,78,0.00,,,0.00,VWS V12.08,2013-05-01 14:31:00,
2013-05-01 10:41:00,60.4,53.5,30.37,East,87,18.0,18.0,78,0.00,,,0.00,VWS V12.08,2013-05-01 14:41:00,
2013-05-01 10:51:00,60.4,53.2,30.37,East,90,20.0,20.0,77,0.00,,,0.00,VWS V12.08,2013-05-01 14:51:00,
2013-05-01 11:01:00,60.0,52.8,30.37,East,94,18.0,22.0,77,0.00,,,0.00,VWS V12.08,2013-05-01 15:01:00,
2013-05-01 11:11:00,59.9,53.0,30.37,East,87,16.0,21.0,78,0.00,,,0.00,VWS V12.08,2013-05-01 15:11:00,
2013-05-01 11:16:00,59.9,53.0,30.37,East,95,18.0,22.0,78,0.00,,,0.00,VWS V12.08,2013-05-01 15:16:00,
2013-05-01 11:21:00,60.0,53.1,30.37,East,88,19.0,22.0,78,0.00,,,0.00,VWS V12.08,2013-05-01 15:21:00,
2013-05-01 11:31:00,59.6,52.4,30.37,East,98,24.0,26.0,77,0.00,,,0.00,VWS V12.08,2013-05-01 15:31:00,
2013-05-01 11:41:00,59.1,52.6,30.38,East,98,21.0,28.0,79,0.00,,,0.00,VWS V12.08,2013-05-01 15:41:00,
2013-05-01 11:46:00,59.0,52.5,30.38,East,81,24.0,30.0,79,0.00,,,0.00,VWS V12.08,2013-05-01 15:46:00,
2013-05-01 11:51:00,58.8,52.3,30.37,East,84,22.0,28.0,79,0.00,,,0.00,VWS V12.08,2013-05-01 15:51:00,
2013-05-01 12:01:00,58.5,52.4,30.37,East,91,25.0,30.0,80,0.00,,,0.00,VWS V12.08,2013-05-01 16:01:00,
2013-05-01 12:11:00,59.1,52.9,30.37,East,80,18.0,26.0,80,0.00,,,0.00,VWS V12.08,2013-05-01 16:11:00,
2013-05-01 12:16:00,59.2,52.7,30.37,East,82,18.0,26.0,79,0.00,,,0.00,VWS V12.08,2013-05-01 16:16:00,
2013-05-01 12:21:00,59.3,53.1,30.38,East,94,26.0,26.0,80,0.00,,,0.00,VWS V12.08,2013-05-01 16:21:00,
2013-05-01 12:31:00,59.2,53.0,30.37,East,86,24.0,28.0,80,0.00,,,0.00,VWS V12.08,2013-05-01 16:31:00,
2013-05-01 12:41:00,58.7,52.2,30.37,East,86,23.0,28.0,79,0.00,,,0.00,VWS V12.08,2013-05-01 16:41:00,
2013-05-01 12:51:00,58.3,51.8,30.37,East,88,29.0,29.0,79,0.00,,,0.00,VWS V12.08,2013-05-01 16:51:00,
2013-05-01 13:01:00,57.9,51.4,30.37,East,82,20.0,31.0,79,0.00,,,0.00,VWS V12.08,2013-05-01 17:01:00,
2013-05-01 13:11:00,58.1,52.0,30.37,East,96,20.0,28.0,80,0.00,,,0.00,VWS V12.08,2013-05-01 17:11:00,
2013-05-01 13:16:00,58.6,52.1,30.37,East,96,22.0,29.0,79,0.00,,,0.00,VWS V12.08,2013-05-01 17:16:00,
2013-05-01 13:21:00,58.9,52.8,30.37,East,86,25.0,27.0,80,0.00,,,0.00,VWS V12.08,2013-05-01 17:21:00,
2013-05-01 13:31:00,59.0,52.2,30.38,ENE,77,21.0,29.0,78,0.00,,,0.00,VWS V12.08,2013-05-01 17:31:00,
2013-05-01 13:41:00,59.2,52.7,30.38,East,87,23.0,27.0,79,0.00,,,0.00,VWS V12.08,2013-05-01 17:41:00,
2013-05-01 13:46:00,59.3,52.8,30.38,East,84,22.0,27.0,79,0.00,,,0.00,VWS V12.08,2013-05-01 17:46:00,
2013-05-01 13:51:00,58.9,52.1,30.38,East,92,21.0,26.0,78,0.00,,,0.00,VWS V12.08,2013-05-01 17:51:00,
2013-05-01 14:01:00,57.3,51.2,30.38,East,81,22.0,27.0,80,0.00,,,0.00,VWS V12.08,2013-05-01 18:01:00,
2013-05-01 14:11:00,56.6,50.8,30.38,East,90,17.0,28.0,81,0.00,,,0.00,VWS V12.08,2013-05-01 18:11:00,
2013-05-01 14:16:00,56.5,50.8,30.38,East,79,17.0,28.0,81,0.00,,,0.00,VWS V12.08,2013-05-01 18:16:00,
2013-05-01 14:21:00,56.3,50.5,30.38,East,89,26.0,26.0,81,0.00,,,0.00,VWS V12.08,2013-05-01 18:21:00,
2013-05-01 14:31:00,56.2,50.5,30.38,East,85,19.0,26.0,81,0.00,,,0.00,VWS V12.08,2013-05-01 18:31:00,
2013-05-01 14:41:00,55.9,50.2,30.38,East,93,17.0,26.0,81,0.00,,,0.00,VWS V12.08,2013-05-01 18:41:00,
2013-05-01 14:46:00,55.8,50.1,30.39,East,86,23.0,26.0,81,0.00,,,0.00,VWS V12.08,2013-05-01 18:46:00,
2013-05-01 14:51:00,55.7,50.3,30.39,East,91,17.0,25.0,82,0.00,,,0.00,VWS V12.08,2013-05-01 18:51:00,
2013-05-01 15:01:00,55.9,50.5,30.38,ENE,71,23.0,25.0,82,0.00,,,0.00,VWS V12.08,2013-05-01 19:01:00,
2013-05-01 15:11:00,55.6,50.2,30.39,East,90,22.0,23.0,82,0.00,,,0.00,VWS V12.08,2013-05-01 19:11:00,
2013-05-01 15:21:00,55.3,49.9,30.38,East,94,23.0,28.0,82,0.00,,,0.00,VWS V12.08,2013-05-01 19:21:00,
2013-05-01 15:31:00,56.0,50.9,30.38,East,82,18.0,28.0,83,0.00,,,0.00,VWS V12.08,2013-05-01 19:31:00,
2013-05-01 15:41:00,56.7,51.3,30.39,ENE,71,18.0,23.0,82,0.00,,,0.00,VWS V12.08,2013-05-01 19:41:00,
2013-05-01 15:46:00,56.6,50.8,30.39,ENE,71,19.0,23.0,81,0.00,,,0.00,VWS V12.08,2013-05-01 19:46:00,
2013-05-01 15:51:00,56.3,50.5,30.38,East,82,14.0,22.0,81,0.00,,,0.00,VWS V12.08,2013-05-01 19:51:00,
2013-05-01 16:01:00,56.2,50.5,30.39,East,82,19.0,22.0,81,0.00,,,0.00,VWS V12.08,2013-05-01 20:01:00,
2013-05-01 16:11:00,56.2,50.5,30.38,ENE,73,18.0,22.0,81,0.00,,,0.00,VWS V12.08,2013-05-01 20:11:00,
2013-05-01 16:16:00,55.9,50.2,30.38,East,90,14.0,23.0,81,0.00,,,0.00,VWS V12.08,2013-05-01 20:16:00,
2013-05-01 16:21:00,55.7,50.0,30.38,East,87,18.0,22.0,81,0.00,,,0.00,VWS V12.08,2013-05-01 20:21:00,
2013-05-01 16:31:00,55.1,49.7,30.38,East,83,21.0,27.0,82,0.00,,,0.00,VWS V12.08,2013-05-01 20:31:00,
2013-05-01 16:41:00,54.7,49.3,30.38,East,95,21.0,25.0,82,0.00,,,0.00,VWS V12.08,2013-05-01 20:41:00,
2013-05-01 16:46:00,54.2,49.2,30.38,East,92,22.0,26.0,83,0.00,,,0.00,VWS V12.08,2013-05-01 20:46:00,
2013-05-01 16:51:00,54.2,49.5,30.39,ENE,72,14.0,22.0,84,0.00,,,0.00,VWS V12.08,2013-05-01 20:51:00,
2013-05-01 17:01:00,53.8,49.1,30.39,East,86,15.0,25.0,84,0.00,,,0.00,VWS V12.08,2013-05-01 21:01:00,
2013-05-01 17:11:00,53.6,48.9,30.39,East,88,20.0,22.0,84,0.00,,,0.00,VWS V12.08,2013-05-01 21:11:00,
2013-05-01 17:21:00,53.3,48.9,30.39,NE,39,14.0,21.0,85,0.00,,,0.00,VWS V12.08,2013-05-01 21:21:00,
2013-05-01 17:31:00,53.2,49.1,30.39,East,84,19.0,22.0,86,0.00,,,0.00,VWS V12.08,2013-05-01 21:31:00,
2013-05-01 17:41:00,53.0,48.9,30.39,East,89,18.0,22.0,86,0.00,,,0.00,VWS V12.08,2013-05-01 21:41:00,
2013-05-01 17:46:00,52.9,48.8,30.39,East,92,20.0,22.0,86,0.00,,,0.00,VWS V12.08,2013-05-01 21:46:00,
2013-05-01 17:51:00,52.6,48.5,30.39,ENE,68,19.0,21.0,86,0.00,,,0.00,VWS V12.08,2013-05-01 21:51:00,
2013-05-01 18:01:00,52.4,48.7,30.39,East,93,14.0,22.0,87,0.00,,,0.00,VWS V12.08,2013-05-01 22:01:00,
2013-05-01 18:11:00,52.1,48.4,30.40,East,96,16.0,20.0,87,0.00,,,0.00,VWS V12.08,2013-05-01 22:11:00,
2013-05-01 18:16:00,52.0,48.6,30.40,East,96,17.0,20.0,88,0.00,,,0.00,VWS V12.08,2013-05-01 22:16:00,
2013-05-01 18:21:00,51.7,48.0,30.40,ENE,71,14.0,20.0,87,0.00,,,0.00,VWS V12.08,2013-05-01 22:21:00,
2013-05-01 18:31:00,51.5,48.1,30.40,East,83,15.0,20.0,88,0.00,,,0.00,VWS V12.08,2013-05-01 22:31:00,
2013-05-01 18:41:00,51.5,48.4,30.40,East,85,13.0,18.0,89,0.00,,,0.00,VWS V12.08,2013-05-01 22:41:00,
2013-05-01 18:46:00,51.4,48.0,30.40,East,82,10.0,18.0,88,0.00,,,0.00,VWS V12.08,2013-05-01 22:46:00,
2013-05-01 18:51:00,51.4,48.3,30.40,East,82,13.0,16.0,89,0.00,,,0.00,VWS V12.08,2013-05-01 22:51:00,
2013-05-01 19:01:00,51.1,48.0,30.40,East,90,9.0,19.0,89,0.00,,,0.00,VWS V12.08,2013-05-01 23:01:00,
2013-05-01 19:11:00,50.8,47.7,30.40,East,91,16.0,18.0,89,0.00,,,0.00,VWS V12.08,2013-05-01 23:11:00,
2013-05-01 19:16:00,50.6,47.5,30.40,ENE,76,12.0,18.0,89,0.00,,,0.00,VWS V12.08,2013-05-01 23:16:00,
2013-05-01 19:21:00,50.4,47.6,30.40,East,84,15.0,16.0,90,0.00,,,0.00,VWS V12.08,2013-05-01 23:21:00,
2013-05-01 19:31:00,50.3,47.5,30.40,East,82,10.0,18.0,90,0.00,,,0.00,VWS V12.08,2013-05-01 23:31:00,
2013-05-01 19:41:00,50.2,47.4,30.40,East,84,14.0,17.0,90,0.00,,,0.00,VWS V12.08,2013-05-01 23:41:00,
2013-05-01 19:46:00,50.1,47.6,30.40,East,88,7.0,17.0,91,0.00,,,0.00,VWS V12.08,2013-05-01 23:46:00,
2013-05-01 19:51:00,50.0,47.5,30.40,East,85,15.0,15.0,91,0.00,,,0.00,VWS V12.08,2013-05-01 23:51:00,
2013-05-01 20:01:00,50.0,47.5,30.40,ENE,75,12.0,15.0,91,0.00,,,0.00,VWS V12.08,2013-05-02 00:01:00,
2013-05-01 20:11:00,50.0,48.6,30.40,East,85,12.0,14.0,95,0.00,,,0.00,VWS V12.08,2013-05-02 00:11:00,
2013-05-01 20:16:00,50.0,47.5,30.40,ENE,76,13.0,14.0,91,0.00,,,0.00,VWS V12.08,2013-05-02 00:16:00,
2013-05-01 20:21:00,50.0,47.8,30.40,ENE,75,10.0,13.0,92,0.00,,,0.00,VWS V12.08,2013-05-02 00:21:00,
2013-05-01 20:31:00,49.9,47.4,30.40,NE,51,6.0,13.0,91,0.00,,,0.00,VWS V12.08,2013-05-02 00:31:00,
2013-05-01 20:41:00,49.4,46.9,30.40,NE,55,9.0,11.0,91,0.00,,,0.00,VWS V12.08,2013-05-02 00:41:00,
2013-05-01 20:46:00,49.3,46.8,30.40,NE,54,10.0,12.0,91,0.00,,,0.00,VWS V12.08,2013-05-02 00:46:00,
2013-05-01 20:51:00,49.2,46.7,30.40,ENE,58,8.0,11.0,91,0.00,,,0.00,VWS V12.08,2013-05-02 00:51:00,
2013-05-01 21:01:00,49.3,47.1,30.40,ENE,68,6.0,12.0,92,0.00,,,0.00,VWS V12.08,2013-05-02 01:01:00,
2013-05-01 21:11:00,49.4,47.2,30.40,ENE,67,13.0,15.0,92,0.00,,,0.00,VWS V12.08,2013-05-02 01:11:00,
2013-05-01 21:16:00,49.4,47.2,30.40,ENE,78,12.0,15.0,92,0.00,,,0.00,VWS V12.08,2013-05-02 01:16:00,
2013-05-01 21:21:00,49.5,47.3,30.40,ENE,75,11.0,15.0,92,0.00,,,0.00,VWS V12.08,2013-05-02 01:21:00,
2013-05-01 21:31:00,49.5,47.3,30.41,ENE,73,9.0,15.0,92,0.00,,,0.00,VWS V12.08,2013-05-02 01:31:00,
2013-05-01 21:41:00,49.6,47.1,30.41,East,84,15.0,18.0,91,0.00,,,0.00,VWS V12.08,2013-05-02 01:41:00,
2013-05-01 21:51:00,49.6,47.1,30.41,East,82,13.0,18.0,91,0.00,,,0.00,VWS V12.08,2013-05-02 01:51:00,
2013-05-01 22:01:00,49.5,47.0,30.41,East,81,17.0,18.0,91,0.00,,,0.00,VWS V12.08,2013-05-02 02:01:00,
2013-05-01 22:11:00,49.4,47.2,30.41,East,84,13.0,20.0,92,0.00,,,0.00,VWS V12.08,2013-05-02 02:11:00,
2013-05-01 22:16:00,49.3,46.8,30.41,East,96,19.0,21.0,91,0.00,,,0.00,VWS V12.08,2013-05-02 02:16:00,
2013-05-01 22:21:00,49.4,47.2,30.41,ESE,103,19.0,23.0,92,0.00,,,0.00,VWS V12.08,2013-05-02 02:21:00,
2013-05-01 22:31:00,49.4,47.2,30.41,East,96,16.0,23.0,92,0.00,,,0.00,VWS V12.08,2013-05-02 02:31:00,
2013-05-01 22:41:00,49.3,47.1,30.40,East,88,16.0,21.0,92,0.00,,,0.00,VWS V12.08,2013-05-02 02:41:00,
2013-05-01 22:46:00,49.2,47.0,30.40,East,94,19.0,21.0,92,0.00,,,0.00,VWS V12.08,2013-05-02 02:46:00,
2013-05-01 22:51:00,49.3,47.1,30.40,East,86,14.0,21.0,92,0.00,,,0.00,VWS V12.08,2013-05-02 02:51:00,
2013-05-01 23:01:00,49.1,46.9,30.40,East,98,14.0,21.0,92,0.00,,,0.00,VWS V12.08,2013-05-02 03:01:00,
2013-05-01 23:11:00,49.0,47.1,30.39,East,84,16.0,17.0,93,0.00,,,0.00,VWS V12.08,2013-05-02 03:11:00,
2013-05-01 23:16:00,49.0,47.1,30.39,East,89,13.0,18.0,93,0.00,,,0.00,VWS V12.08,2013-05-02 03:16:00,
2013-05-01 23:21:00,49.1,47.2,30.39,East,80,10.0,19.0,93,0.00,,,0.00,VWS V12.08,2013-05-02 03:21:00,
2013-05-01 23:31:00,49.2,47.3,30.39,East,79,14.0,19.0,93,0.00,,,0.00,VWS V12.08,2013-05-02 03:31:00,
2013-05-01 23:41:00,49.2,47.3,30.39,ENE,78,11.0,18.0,93,0.00,,,0.00,VWS V12.08,2013-05-02 03:41:00,
2013-05-01 23:46:00,49.3,47.4,30.39,ENE,76,13.0,18.0,93,0.00,,,0.00,VWS V12.08,2013-05-02 03:46:00,
2013-05-01 23:51:00,49.5,47.6,30.39,East,80,14.0,19.0,93,0.00,,,0.00,VWS V12.08,2013-05-02 03:51:00,